Year,Month,Day,Hour,Minute,Value (Times are PST for temperature in C)
2016,11,21,00,00,11.00
2016,11,21,00,01,11.00
2016,11,21,00,02,11.00
2016,11,21,00,03,11.00
2016,11,21,00,04,10.90
2016,11,21,00,05,11.00
2016,11,21,00,06,11.00
2016,11,21,00,07,11.00
2016,11,21,00,08,11.00
2016,11,21,00,09,11.00
2016,11,21,00,10,11.00
2016,11,21,00,11,11.00
2016,11,21,00,12,11.00
2016,11,21,00,13,10.90
2016,11,21,00,14,10.90
2016,11,21,00,15,10.90
2016,11,21,00,16,10.90
2016,11,21,00,17,10.90
2016,11,21,00,18,10.90
2016,11,21,00,19,10.90
2016,11,21,00,20,10.90
2016,11,21,00,21,10.90
2016,11,21,00,22,10.90
2016,11,21,00,23,10.90
2016,11,21,00,24,10.90
2016,11,21,00,25,10.90
2016,11,21,00,26,10.90
2016,11,21,00,27,10.90
2016,11,21,00,28,10.90
2016,11,21,00,29,10.80
2016,11,21,00,30,10.80
2016,11,21,00,31,10.80
2016,11,21,00,32,10.70
2016,11,21,00,33,10.70
2016,11,21,00,34,10.70
2016,11,21,00,35,10.70
2016,11,21,00,36,10.70
2016,11,21,00,37,10.70
2016,11,21,00,38,10.80
2016,11,21,00,39,10.80
2016,11,21,00,40,10.80
2016,11,21,00,41,10.80
2016,11,21,00,42,10.80
2016,11,21,00,43,10.90
2016,11,21,00,44,10.90
2016,11,21,00,45,10.90
2016,11,21,00,46,10.90
2016,11,21,00,47,11.00
2016,11,21,00,48,11.00
2016,11,21,00,49,11.00
2016,11,21,00,50,11.10
2016,11,21,00,51,11.10
2016,11,21,00,52,11.20
2016,11,21,00,53,11.20
2016,11,21,00,54,11.20
2016,11,21,00,55,11.20
2016,11,21,00,56,11.20
2016,11,21,00,57,11.20
2016,11,21,00,58,11.20
2016,11,21,00,59,11.30
2016,11,21,01,00,11.30
2016,11,21,01,01,11.40
2016,11,21,01,02,11.40
2016,11,21,01,03,11.40
2016,11,21,01,04,11.40
2016,11,21,01,05,11.50
2016,11,21,01,06,11.50
2016,11,21,01,07,11.60
2016,11,21,01,08,11.60
2016,11,21,01,09,11.60
2016,11,21,01,10,11.60
2016,11,21,01,11,11.50
2016,11,21,01,12,11.50
2016,11,21,01,13,11.50
2016,11,21,01,14,11.50
2016,11,21,01,15,11.40
2016,11,21,01,16,11.40
2016,11,21,01,17,11.40
2016,11,21,01,18,11.40
2016,11,21,01,19,11.40
2016,11,21,01,20,11.40
2016,11,21,01,21,11.30
2016,11,21,01,22,11.30
2016,11,21,01,23,11.30
2016,11,21,01,24,11.30
2016,11,21,01,25,11.20
2016,11,21,01,26,11.20
2016,11,21,01,27,11.20
2016,11,21,01,28,11.20
2016,11,21,01,29,11.20
2016,11,21,01,30,11.20
2016,11,21,01,31,11.30
2016,11,21,01,32,11.30
2016,11,21,01,33,11.30
2016,11,21,01,34,11.30
2016,11,21,01,35,11.30
2016,11,21,01,36,11.30
2016,11,21,01,37,11.20
2016,11,21,01,38,11.20
2016,11,21,01,39,11.20
2016,11,21,01,40,11.20
2016,11,21,01,41,11.20
2016,11,21,01,42,11.10
2016,11,21,01,43,11.10
2016,11,21,01,44,11.10
2016,11,21,01,45,11.10
2016,11,21,01,46,11.00
2016,11,21,01,47,11.00
2016,11,21,01,48,10.90
2016,11,21,01,49,10.90
2016,11,21,01,50,10.90
2016,11,21,01,51,10.80
2016,11,21,01,52,10.80
2016,11,21,01,53,10.80
2016,11,21,01,54,10.80
2016,11,21,01,55,10.80
2016,11,21,01,56,10.70
2016,11,21,01,57,10.70
2016,11,21,01,58,10.70
2016,11,21,01,59,10.60
2016,11,21,02,00,10.60
2016,11,21,02,01,10.50
2016,11,21,02,02,10.50
2016,11,21,02,03,10.50
2016,11,21,02,04,10.40
2016,11,21,02,05,10.40
2016,11,21,02,06,10.40
2016,11,21,02,07,10.40
2016,11,21,02,08,10.40
2016,11,21,02,09,10.30
2016,11,21,02,10,10.30
2016,11,21,02,11,10.30
2016,11,21,02,12,10.30
2016,11,21,02,13,10.20
2016,11,21,02,14,10.20
2016,11,21,02,15,10.20
2016,11,21,02,16,10.20
2016,11,21,02,17,10.20
2016,11,21,02,18,10.20
2016,11,21,02,19,10.20
2016,11,21,02,20,10.20
2016,11,21,02,21,10.20
2016,11,21,02,22,10.20
2016,11,21,02,23,10.30
2016,11,21,02,24,10.30
2016,11,21,02,25,10.30
2016,11,21,02,26,10.30
2016,11,21,02,27,10.30
2016,11,21,02,28,10.40
2016,11,21,02,29,10.40
2016,11,21,02,30,10.40
2016,11,21,02,31,10.40
2016,11,21,02,32,10.40
2016,11,21,02,33,10.50
2016,11,21,02,34,10.50
2016,11,21,02,35,10.60
2016,11,21,02,36,10.70
2016,11,21,02,37,10.70
2016,11,21,02,38,10.70
2016,11,21,02,39,10.80
2016,11,21,02,40,10.80
2016,11,21,02,41,10.80
2016,11,21,02,42,10.90
2016,11,21,02,43,10.90
2016,11,21,02,44,11.00
2016,11,21,02,45,11.10
2016,11,21,02,46,11.10
2016,11,21,02,47,11.10
2016,11,21,02,48,11.10
2016,11,21,02,49,11.20
2016,11,21,02,50,11.20
2016,11,21,02,51,11.20
2016,11,21,02,52,11.20
2016,11,21,02,53,11.10
2016,11,21,02,54,11.10
2016,11,21,02,55,11.10
2016,11,21,02,56,11.10
2016,11,21,02,57,11.00
2016,11,21,02,58,11.00
2016,11,21,02,59,10.90
2016,11,21,03,00,10.90
2016,11,21,03,01,10.90
2016,11,21,03,02,10.80
2016,11,21,03,03,10.80
2016,11,21,03,04,10.80
2016,11,21,03,05,10.70
2016,11,21,03,06,10.70
2016,11,21,03,07,10.70
2016,11,21,03,08,10.70
2016,11,21,03,09,10.60
2016,11,21,03,10,10.60
2016,11,21,03,11,10.60
2016,11,21,03,12,10.50
2016,11,21,03,13,10.50
2016,11,21,03,14,10.40
2016,11,21,03,15,10.40
2016,11,21,03,16,10.40
2016,11,21,03,17,10.30
2016,11,21,03,18,10.30
2016,11,21,03,19,10.30
2016,11,21,03,20,10.20
2016,11,21,03,21,10.20
2016,11,21,03,22,10.20
2016,11,21,03,23,10.10
2016,11,21,03,24,10.00
2016,11,21,03,25,10.00
2016,11,21,03,26,9.90
2016,11,21,03,27,9.80
2016,11,21,03,28,9.80
2016,11,21,03,29,9.70
2016,11,21,03,30,9.70
2016,11,21,03,31,9.60
2016,11,21,03,32,9.60
2016,11,21,03,33,9.50
2016,11,21,03,34,9.50
2016,11,21,03,35,9.40
2016,11,21,03,36,9.40
2016,11,21,03,37,9.40
2016,11,21,03,38,9.40
2016,11,21,03,39,9.40
2016,11,21,03,40,9.40
2016,11,21,03,41,9.40
2016,11,21,03,42,9.40
2016,11,21,03,43,9.40
2016,11,21,03,44,9.40
2016,11,21,03,45,9.40
2016,11,21,03,46,9.40
2016,11,21,03,47,9.40
2016,11,21,03,48,9.40
2016,11,21,03,49,9.40
2016,11,21,03,50,9.40
2016,11,21,03,51,9.40
2016,11,21,03,52,9.40
2016,11,21,03,53,9.50
2016,11,21,03,54,9.50
2016,11,21,03,55,9.50
2016,11,21,03,56,9.50
2016,11,21,03,57,9.50
2016,11,21,03,58,9.50
2016,11,21,03,59,9.60
2016,11,21,04,00,9.60
2016,11,21,04,01,9.50
2016,11,21,04,02,9.50
2016,11,21,04,03,9.50
2016,11,21,04,04,9.50
2016,11,21,04,05,9.40
2016,11,21,04,06,9.40
2016,11,21,04,07,9.40
2016,11,21,04,08,9.40
2016,11,21,04,09,9.40
2016,11,21,04,10,9.40
2016,11,21,04,11,9.40
2016,11,21,04,12,9.40
2016,11,21,04,13,9.30
2016,11,21,04,14,9.30
2016,11,21,04,15,9.30
2016,11,21,04,16,9.30
2016,11,21,04,17,9.30
2016,11,21,04,18,9.30
2016,11,21,04,19,9.30
2016,11,21,04,20,9.30
2016,11,21,04,21,9.30
2016,11,21,04,22,9.30
2016,11,21,04,23,9.20
2016,11,21,04,24,9.20
2016,11,21,04,25,9.20
2016,11,21,04,26,9.10
2016,11,21,04,27,9.10
2016,11,21,04,28,9.10
2016,11,21,04,29,9.10
2016,11,21,04,30,9.00
2016,11,21,04,31,9.00
2016,11,21,04,32,9.00
2016,11,21,04,33,9.00
2016,11,21,04,34,9.00
2016,11,21,04,35,8.90
2016,11,21,04,36,8.90
2016,11,21,04,37,8.90
2016,11,21,04,38,8.90
2016,11,21,04,39,8.90
2016,11,21,04,40,8.90
2016,11,21,04,41,8.90
2016,11,21,04,42,8.90
2016,11,21,04,43,8.80
2016,11,21,04,44,8.80
2016,11,21,04,45,8.80
2016,11,21,04,46,8.80
2016,11,21,04,47,8.80
2016,11,21,04,48,8.80
2016,11,21,04,49,8.80
2016,11,21,04,50,8.70
2016,11,21,04,51,8.70
2016,11,21,04,52,8.70
2016,11,21,04,53,8.70
2016,11,21,04,54,8.70
2016,11,21,04,55,8.60
2016,11,21,04,56,8.60
2016,11,21,04,57,8.60
2016,11,21,04,58,8.60
2016,11,21,04,59,8.60
2016,11,21,05,00,8.60
2016,11,21,05,01,8.60
2016,11,21,05,02,8.60
2016,11,21,05,03,8.60
2016,11,21,05,04,8.60
2016,11,21,05,05,8.50
2016,11,21,05,06,8.50
2016,11,21,05,07,8.50
2016,11,21,05,08,8.50
2016,11,21,05,09,8.50
2016,11,21,05,10,8.50
2016,11,21,05,11,8.40
2016,11,21,05,12,8.40
2016,11,21,05,13,8.40
2016,11,21,05,14,8.40
2016,11,21,05,15,8.30
2016,11,21,05,16,8.30
2016,11,21,05,17,8.30
2016,11,21,05,18,8.30
2016,11,21,05,19,8.30
2016,11,21,05,20,8.30
2016,11,21,05,21,8.20
2016,11,21,05,22,8.20
2016,11,21,05,23,8.20
2016,11,21,05,24,8.20
2016,11,21,05,25,8.10
2016,11,21,05,26,8.10
2016,11,21,05,27,8.10
2016,11,21,05,28,8.10
2016,11,21,05,29,8.10
2016,11,21,05,30,8.00
2016,11,21,05,31,8.00
2016,11,21,05,32,8.00
2016,11,21,05,33,7.90
2016,11,21,05,34,7.90
2016,11,21,05,35,7.90
2016,11,21,05,36,7.90
2016,11,21,05,37,7.80
2016,11,21,05,38,7.80
2016,11,21,05,39,7.80
2016,11,21,05,40,7.70
2016,11,21,05,41,7.70
2016,11,21,05,42,7.70
2016,11,21,05,43,7.70
2016,11,21,05,44,7.60
2016,11,21,05,45,7.60
2016,11,21,05,46,7.60
2016,11,21,05,47,7.60
2016,11,21,05,48,7.60
2016,11,21,05,49,7.60
2016,11,21,05,50,7.60
2016,11,21,05,51,7.50
2016,11,21,05,52,7.50
2016,11,21,05,53,7.50
2016,11,21,05,54,7.50
2016,11,21,05,55,7.50
2016,11,21,05,56,7.50
2016,11,21,05,57,7.50
2016,11,21,05,58,7.50
2016,11,21,05,59,7.50
2016,11,21,06,00,7.40
2016,11,21,06,01,7.40
2016,11,21,06,02,7.40
2016,11,21,06,03,7.40
2016,11,21,06,04,7.40
2016,11,21,06,05,7.40
2016,11,21,06,06,7.30
2016,11,21,06,07,7.30
2016,11,21,06,08,7.30
2016,11,21,06,09,7.30
2016,11,21,06,10,7.30
2016,11,21,06,11,7.20
2016,11,21,06,12,7.20
2016,11,21,06,13,7.20
2016,11,21,06,14,7.20
2016,11,21,06,15,7.20
2016,11,21,06,16,7.10
2016,11,21,06,17,7.10
2016,11,21,06,18,7.10
2016,11,21,06,19,7.10
2016,11,21,06,20,7.10
2016,11,21,06,21,7.00
2016,11,21,06,22,7.00
2016,11,21,06,23,6.90
2016,11,21,06,24,6.80
2016,11,21,06,25,6.80
2016,11,21,06,26,6.80
2016,11,21,06,27,6.70
2016,11,21,06,28,6.70
2016,11,21,06,29,6.70
2016,11,21,06,30,6.70
2016,11,21,06,31,6.70
2016,11,21,06,32,6.60
2016,11,21,06,33,6.60
2016,11,21,06,34,6.60
2016,11,21,06,35,6.60
2016,11,21,06,36,6.50
2016,11,21,06,37,6.50
2016,11,21,06,38,6.50
2016,11,21,06,39,6.40
2016,11,21,06,40,6.40
2016,11,21,06,41,6.40
2016,11,21,06,42,6.40
2016,11,21,06,43,6.40
2016,11,21,06,44,6.30
2016,11,21,06,45,6.30
2016,11,21,06,46,6.30
2016,11,21,06,47,6.30
2016,11,21,06,48,6.30
2016,11,21,06,49,6.30
2016,11,21,06,50,6.30
2016,11,21,06,51,6.30
2016,11,21,06,52,6.30
2016,11,21,06,53,6.40
2016,11,21,06,54,6.40
2016,11,21,06,55,6.40
2016,11,21,06,56,6.50
2016,11,21,06,57,6.50
2016,11,21,06,58,6.40
2016,11,21,06,59,6.40
2016,11,21,07,00,6.40
2016,11,21,07,01,6.40
2016,11,21,07,02,6.50
2016,11,21,07,03,6.50
2016,11,21,07,04,6.60
2016,11,21,07,05,6.60
2016,11,21,07,06,6.60
2016,11,21,07,07,6.60
2016,11,21,07,08,6.60
2016,11,21,07,09,6.60
2016,11,21,07,10,6.60
2016,11,21,07,11,6.60
2016,11,21,07,12,6.60
2016,11,21,07,13,6.60
2016,11,21,07,14,6.60
2016,11,21,07,15,6.50
2016,11,21,07,16,6.50
2016,11,21,07,17,6.40
2016,11,21,07,18,6.30
2016,11,21,07,19,6.30
2016,11,21,07,20,6.20
2016,11,21,07,21,6.20
2016,11,21,07,22,6.10
2016,11,21,07,23,6.10
2016,11,21,07,24,6.00
2016,11,21,07,25,6.00
2016,11,21,07,26,6.00
2016,11,21,07,27,5.90
2016,11,21,07,28,5.90
2016,11,21,07,29,5.90
2016,11,21,07,30,5.90
2016,11,21,07,31,5.80
2016,11,21,07,32,5.80
2016,11,21,07,33,5.80
2016,11,21,07,34,5.80
2016,11,21,07,35,5.80
2016,11,21,07,36,5.80
2016,11,21,07,37,5.70
2016,11,21,07,38,5.70
2016,11,21,07,39,5.70
2016,11,21,07,40,5.70
2016,11,21,07,41,5.70
2016,11,21,07,42,5.70
2016,11,21,07,43,5.70
2016,11,21,07,44,5.70
2016,11,21,07,45,5.70
2016,11,21,07,46,5.70
2016,11,21,07,47,5.70
2016,11,21,07,48,5.70
2016,11,21,07,49,5.70
2016,11,21,07,50,5.70
2016,11,21,07,51,5.70
2016,11,21,07,52,5.70
2016,11,21,07,53,5.70
2016,11,21,07,54,5.70
2016,11,21,07,55,5.80
2016,11,21,07,56,5.80
2016,11,21,07,57,5.80
2016,11,21,07,58,5.70
2016,11,21,07,59,5.70
2016,11,21,08,00,5.70
2016,11,21,08,01,5.80
2016,11,21,08,02,5.80
2016,11,21,08,03,5.80
2016,11,21,08,04,5.90
2016,11,21,08,05,5.90
2016,11,21,08,06,5.90
2016,11,21,08,07,5.90
2016,11,21,08,08,5.90
2016,11,21,08,09,5.90
2016,11,21,08,10,5.90
2016,11,21,08,11,5.90
2016,11,21,08,12,5.90
2016,11,21,08,13,5.90
2016,11,21,08,14,5.90
2016,11,21,08,15,5.90
2016,11,21,08,16,5.90
2016,11,21,08,17,5.90
2016,11,21,08,18,5.90
2016,11,21,08,19,5.90
2016,11,21,08,20,5.90
2016,11,21,08,21,5.90
2016,11,21,08,22,5.90
2016,11,21,08,23,5.90
2016,11,21,08,24,5.90
2016,11,21,08,25,6.00
2016,11,21,08,26,6.00
2016,11,21,08,27,6.10
2016,11,21,08,28,6.10
2016,11,21,08,29,6.20
2016,11,21,08,30,6.20
2016,11,21,08,31,6.30
2016,11,21,08,32,6.40
2016,11,21,08,33,6.40
2016,11,21,08,34,6.40
2016,11,21,08,35,6.50
2016,11,21,08,36,6.50
2016,11,21,08,37,6.50
2016,11,21,08,38,6.60
2016,11,21,08,39,6.60
2016,11,21,08,40,6.60
2016,11,21,08,41,6.60
2016,11,21,08,42,6.70
2016,11,21,08,43,6.70
2016,11,21,08,44,6.70
2016,11,21,08,45,6.80
2016,11,21,08,46,6.80
2016,11,21,08,47,6.80
2016,11,21,08,48,6.80
2016,11,21,08,49,6.80
2016,11,21,08,50,6.80
2016,11,21,08,51,6.80
2016,11,21,08,52,6.80
2016,11,21,08,53,6.80
2016,11,21,08,54,6.80
2016,11,21,08,55,6.80
2016,11,21,08,56,6.70
2016,11,21,08,57,6.70
2016,11,21,08,58,6.70
2016,11,21,08,59,6.70
2016,11,21,09,00,6.70
2016,11,21,09,01,6.70
2016,11,21,09,02,6.80
2016,11,21,09,03,6.80
2016,11,21,09,04,6.80
2016,11,21,09,05,6.80
2016,11,21,09,06,6.90
2016,11,21,09,07,6.90
2016,11,21,09,08,6.90
2016,11,21,09,09,7.00
2016,11,21,09,10,7.00
2016,11,21,09,11,7.10
2016,11,21,09,12,7.10
2016,11,21,09,13,7.20
2016,11,21,09,14,7.20
2016,11,21,09,15,7.30
2016,11,21,09,16,7.30
2016,11,21,09,17,7.30
2016,11,21,09,18,7.30
2016,11,21,09,19,7.40
2016,11,21,09,20,7.40
2016,11,21,09,21,7.40
2016,11,21,09,22,7.50
2016,11,21,09,23,7.60
2016,11,21,09,24,7.60
2016,11,21,09,25,7.70
2016,11,21,09,26,7.70
2016,11,21,09,27,7.70
2016,11,21,09,28,7.70
2016,11,21,09,29,7.70
2016,11,21,09,30,7.70
2016,11,21,09,31,7.70
2016,11,21,09,32,7.60
2016,11,21,09,33,7.70
2016,11,21,09,34,7.60
2016,11,21,09,35,7.70
2016,11,21,09,36,7.70
2016,11,21,09,37,7.70
2016,11,21,09,38,7.70
2016,11,21,09,39,7.80
2016,11,21,09,40,7.80
2016,11,21,09,41,7.80
2016,11,21,09,42,7.90
2016,11,21,09,43,7.90
2016,11,21,09,44,7.90
2016,11,21,09,45,8.00
2016,11,21,09,46,8.00
2016,11,21,09,47,8.10
2016,11,21,09,48,8.10
2016,11,21,09,49,8.20
2016,11,21,09,50,8.20
2016,11,21,09,51,8.30
2016,11,21,09,52,8.30
2016,11,21,09,53,8.40
2016,11,21,09,54,8.40
2016,11,21,09,55,8.40
2016,11,21,09,56,8.50
2016,11,21,09,57,8.50
2016,11,21,09,58,8.50
2016,11,21,09,59,8.60
2016,11,21,10,00,8.60
2016,11,21,10,01,8.70
2016,11,21,10,02,8.70
2016,11,21,10,03,8.80
2016,11,21,10,04,8.80
2016,11,21,10,05,8.90
2016,11,21,10,06,8.90
2016,11,21,10,07,8.90
2016,11,21,10,08,8.90
2016,11,21,10,09,9.00
2016,11,21,10,10,9.00
2016,11,21,10,11,9.00
2016,11,21,10,12,9.10
2016,11,21,10,13,9.10
2016,11,21,10,14,9.10
2016,11,21,10,15,9.20
2016,11,21,10,16,9.20
2016,11,21,10,17,9.20
2016,11,21,10,18,9.20
2016,11,21,10,19,9.30
2016,11,21,10,20,9.30
2016,11,21,10,21,9.40
2016,11,21,10,22,9.40
2016,11,21,10,23,9.50
2016,11,21,10,24,9.50
2016,11,21,10,25,9.60
2016,11,21,10,26,9.60
2016,11,21,10,27,9.70
2016,11,21,10,28,9.80
2016,11,21,10,29,9.80
2016,11,21,10,30,9.90
2016,11,21,10,31,10.00
2016,11,21,10,32,10.00
2016,11,21,10,33,10.10
2016,11,21,10,34,10.20
2016,11,21,10,35,10.20
2016,11,21,10,36,10.20
2016,11,21,10,37,10.20
2016,11,21,10,38,10.20
2016,11,21,10,39,10.20
2016,11,21,10,40,10.10
2016,11,21,10,41,10.20
2016,11,21,10,42,10.20
2016,11,21,10,43,10.20
2016,11,21,10,44,10.20
2016,11,21,10,45,10.10
2016,11,21,10,46,10.10
2016,11,21,10,47,10.00
2016,11,21,10,48,10.00
2016,11,21,10,49,10.00
2016,11,21,10,50,10.00
2016,11,21,10,51,10.00
2016,11,21,10,52,9.90
2016,11,21,10,53,9.90
2016,11,21,10,54,9.90
2016,11,21,10,55,10.00
2016,11,21,10,56,10.00
2016,11,21,10,57,10.00
2016,11,21,10,58,10.00
2016,11,21,10,59,10.10
2016,11,21,11,00,10.10
2016,11,21,11,01,10.20
2016,11,21,11,02,10.20
2016,11,21,11,03,10.30
2016,11,21,11,04,10.40
2016,11,21,11,05,10.50
2016,11,21,11,06,10.60
2016,11,21,11,07,10.60
2016,11,21,11,08,10.70
2016,11,21,11,09,10.70
2016,11,21,11,10,10.70
2016,11,21,11,11,10.80
2016,11,21,11,12,10.80
2016,11,21,11,13,10.80
2016,11,21,11,14,10.90
2016,11,21,11,15,10.90
2016,11,21,11,16,11.00
2016,11,21,11,17,11.10
2016,11,21,11,18,11.10
2016,11,21,11,19,11.20
2016,11,21,11,20,11.20
2016,11,21,11,21,11.20
2016,11,21,11,22,11.20
2016,11,21,11,23,11.20
2016,11,21,11,24,11.20
2016,11,21,11,25,11.20
2016,11,21,11,26,11.30
2016,11,21,11,27,11.30
2016,11,21,11,28,11.30
2016,11,21,11,29,11.30
2016,11,21,11,30,11.30
2016,11,21,11,31,11.30
2016,11,21,11,32,11.30
2016,11,21,11,33,11.30
2016,11,21,11,34,11.30
2016,11,21,11,35,11.20
2016,11,21,11,36,11.20
2016,11,21,11,37,11.20
2016,11,21,11,38,11.10
2016,11,21,11,39,11.10
2016,11,21,11,40,11.10
2016,11,21,11,41,11.10
2016,11,21,11,42,11.10
2016,11,21,11,43,11.00
2016,11,21,11,44,11.00
2016,11,21,11,45,11.00
2016,11,21,11,46,11.00
2016,11,21,11,47,11.00
2016,11,21,11,48,11.00
2016,11,21,11,49,11.00
2016,11,21,11,50,11.10
2016,11,21,11,51,11.10
2016,11,21,11,52,11.10
2016,11,21,11,53,11.10
2016,11,21,11,54,11.10
2016,11,21,11,55,11.10
2016,11,21,11,56,11.10
2016,11,21,11,57,11.10
2016,11,21,11,58,11.10
2016,11,21,11,59,11.20
2016,11,21,12,00,11.20
2016,11,21,12,01,11.20
2016,11,21,12,02,11.20
2016,11,21,12,03,11.20
2016,11,21,12,04,11.20
2016,11,21,12,05,11.20
2016,11,21,12,06,11.20
2016,11,21,12,07,11.20
2016,11,21,12,08,11.20
2016,11,21,12,09,11.20
2016,11,21,12,10,11.20
2016,11,21,12,11,11.20
2016,11,21,12,12,11.20
2016,11,21,12,13,11.20
2016,11,21,12,14,11.20
2016,11,21,12,15,11.20
2016,11,21,12,16,11.20
2016,11,21,12,17,11.30
2016,11,21,12,18,11.30
2016,11,21,12,19,11.30
2016,11,21,12,20,11.30
2016,11,21,12,21,11.40
2016,11,21,12,22,11.40
2016,11,21,12,23,11.50
2016,11,21,12,24,11.50
2016,11,21,12,25,11.50
2016,11,21,12,26,11.50
2016,11,21,12,27,11.50
2016,11,21,12,28,11.50
2016,11,21,12,29,11.40
2016,11,21,12,30,11.30
2016,11,21,12,31,11.30
2016,11,21,12,32,11.30
2016,11,21,12,33,11.20
2016,11,21,12,34,11.20
2016,11,21,12,35,11.20
2016,11,21,12,36,11.20
2016,11,21,12,37,11.30
2016,11,21,12,38,11.30
2016,11,21,12,39,11.30
2016,11,21,12,40,11.30
2016,11,21,12,41,11.20
2016,11,21,12,42,11.20
2016,11,21,12,43,11.20
2016,11,21,12,44,11.20
2016,11,21,12,45,11.20
2016,11,21,12,46,11.20
2016,11,21,12,47,11.20
2016,11,21,12,48,11.20
2016,11,21,12,49,11.20
2016,11,21,12,50,11.20
2016,11,21,12,51,11.20
2016,11,21,12,52,11.20
2016,11,21,12,53,11.20
2016,11,21,12,54,11.20
2016,11,21,12,55,11.20
2016,11,21,12,56,11.20
2016,11,21,12,57,11.30
2016,11,21,12,58,11.30
2016,11,21,12,59,11.40
2016,11,21,13,00,11.40
2016,11,21,13,01,11.40
2016,11,21,13,02,11.50
2016,11,21,13,03,11.50
2016,11,21,13,04,11.60
2016,11,21,13,05,11.60
2016,11,21,13,06,11.70
2016,11,21,13,07,11.70
2016,11,21,13,08,11.70
2016,11,21,13,09,11.70
2016,11,21,13,10,11.70
2016,11,21,13,11,11.70
2016,11,21,13,12,11.70
2016,11,21,13,13,11.70
2016,11,21,13,14,11.80
2016,11,21,13,15,11.80
2016,11,21,13,16,11.80
2016,11,21,13,17,11.80
2016,11,21,13,18,11.90
2016,11,21,13,19,11.90
2016,11,21,13,20,12.00
2016,11,21,13,21,12.00
2016,11,21,13,22,12.10
2016,11,21,13,23,12.00
2016,11,21,13,24,12.00
2016,11,21,13,25,12.00
2016,11,21,13,26,12.10
2016,11,21,13,27,12.00
2016,11,21,13,28,12.00
2016,11,21,13,29,11.90
2016,11,21,13,30,11.90
2016,11,21,13,31,11.80
2016,11,21,13,32,11.80
2016,11,21,13,33,11.80
2016,11,21,13,34,11.80
2016,11,21,13,35,11.80
2016,11,21,13,36,11.80
2016,11,21,13,37,11.80
2016,11,21,13,38,11.90
2016,11,21,13,39,11.90
2016,11,21,13,40,11.90
2016,11,21,13,41,11.90
2016,11,21,13,42,11.90
2016,11,21,13,43,11.90
2016,11,21,13,44,11.80
2016,11,21,13,45,11.80
2016,11,21,13,46,11.80
2016,11,21,13,47,11.70
2016,11,21,13,48,11.60
2016,11,21,13,49,11.60
2016,11,21,13,50,11.60
2016,11,21,13,51,11.60
2016,11,21,13,52,11.60
2016,11,21,13,53,11.60
2016,11,21,13,54,11.60
2016,11,21,13,55,11.70
2016,11,21,13,56,11.70
2016,11,21,13,57,11.70
2016,11,21,13,58,11.70
2016,11,21,13,59,11.70
2016,11,21,14,00,11.70
2016,11,21,14,01,11.70
2016,11,21,14,02,11.70
2016,11,21,14,03,11.60
2016,11,21,14,04,11.60
2016,11,21,14,05,11.60
2016,11,21,14,06,11.50
2016,11,21,14,07,11.50
2016,11,21,14,08,11.50
2016,11,21,14,09,11.50
2016,11,21,14,10,11.50
2016,11,21,14,11,11.50
2016,11,21,14,12,11.50
2016,11,21,14,13,11.40
2016,11,21,14,14,11.40
2016,11,21,14,15,11.40
2016,11,21,14,16,11.40
2016,11,21,14,17,11.40
2016,11,21,14,18,11.40
2016,11,21,14,19,11.40
2016,11,21,14,20,11.40
2016,11,21,14,21,11.40
2016,11,21,14,22,11.30
2016,11,21,14,23,11.30
2016,11,21,14,24,11.30
2016,11,21,14,25,11.30
2016,11,21,14,26,11.20
2016,11,21,14,27,11.20
2016,11,21,14,28,11.10
2016,11,21,14,29,11.10
2016,11,21,14,30,11.10
2016,11,21,14,31,11.10
2016,11,21,14,32,11.10
2016,11,21,14,33,11.00
2016,11,21,14,34,11.00
2016,11,21,14,35,11.00
2016,11,21,14,36,10.90
2016,11,21,14,37,10.90
2016,11,21,14,38,10.90
2016,11,21,14,39,10.90
2016,11,21,14,40,10.90
2016,11,21,14,41,10.90
2016,11,21,14,42,10.90
2016,11,21,14,43,10.80
2016,11,21,14,44,10.80
2016,11,21,14,45,10.80
2016,11,21,14,46,10.80
2016,11,21,14,47,10.80
2016,11,21,14,48,10.80
2016,11,21,14,49,10.80
2016,11,21,14,50,10.80
2016,11,21,14,51,10.80
2016,11,21,14,52,10.80
2016,11,21,14,53,10.80
2016,11,21,14,54,10.80
2016,11,21,14,55,10.80
2016,11,21,14,56,10.80
2016,11,21,14,57,10.80
2016,11,21,14,58,10.90
2016,11,21,14,59,10.90
2016,11,21,15,00,10.90
2016,11,21,15,01,10.90
2016,11,21,15,02,10.90
2016,11,21,15,03,10.90
2016,11,21,15,04,10.90
2016,11,21,15,05,10.90
2016,11,21,15,06,10.90
2016,11,21,15,07,10.80
2016,11,21,15,08,10.80
2016,11,21,15,09,10.80
2016,11,21,15,10,10.80
2016,11,21,15,11,10.80
2016,11,21,15,12,10.70
2016,11,21,15,13,10.70
2016,11,21,15,14,10.60
2016,11,21,15,15,10.60
2016,11,21,15,16,10.50
2016,11,21,15,17,10.50
2016,11,21,15,18,10.40
2016,11,21,15,19,10.40
2016,11,21,15,20,10.30
2016,11,21,15,21,10.30
2016,11,21,15,22,10.30
2016,11,21,15,23,10.30
2016,11,21,15,24,10.20
2016,11,21,15,25,10.20
2016,11,21,15,26,10.10
2016,11,21,15,27,10.10
2016,11,21,15,28,10.10
2016,11,21,15,29,10.00
2016,11,21,15,30,10.00
2016,11,21,15,31,10.00
2016,11,21,15,32,9.90
2016,11,21,15,33,9.90
2016,11,21,15,34,9.90
2016,11,21,15,35,9.80
2016,11,21,15,36,9.80
2016,11,21,15,37,9.80
2016,11,21,15,38,9.80
2016,11,21,15,39,9.80
2016,11,21,15,40,9.70
2016,11,21,15,41,9.70
2016,11,21,15,42,9.70
2016,11,21,15,43,9.70
2016,11,21,15,44,9.70
2016,11,21,15,45,9.70
2016,11,21,15,46,9.70
2016,11,21,15,47,9.70
2016,11,21,15,48,9.70
2016,11,21,15,49,9.70
2016,11,21,15,50,9.70
2016,11,21,15,51,9.60
2016,11,21,15,52,9.70
2016,11,21,15,53,9.60
2016,11,21,15,54,9.60
2016,11,21,15,55,9.60
2016,11,21,15,56,9.60
2016,11,21,15,57,9.60
2016,11,21,15,58,9.60
2016,11,21,15,59,9.60
2016,11,21,16,00,9.50
2016,11,21,16,01,9.50
2016,11,21,16,02,9.50
2016,11,21,16,03,9.40
2016,11,21,16,04,9.40
2016,11,21,16,05,9.40
2016,11,21,16,06,9.40
2016,11,21,16,07,9.30
2016,11,21,16,08,9.30
2016,11,21,16,09,9.30
2016,11,21,16,10,9.30
2016,11,21,16,11,9.20
2016,11,21,16,12,9.20
2016,11,21,16,13,9.20
2016,11,21,16,14,9.20
2016,11,21,16,15,9.20
2016,11,21,16,16,9.20
2016,11,21,16,17,9.20
2016,11,21,16,18,9.20
2016,11,21,16,19,9.20
2016,11,21,16,20,9.20
2016,11,21,16,21,9.10
2016,11,21,16,22,9.20
2016,11,21,16,23,9.10
2016,11,21,16,24,9.10
2016,11,21,16,25,9.10
2016,11,21,16,26,9.10
2016,11,21,16,27,9.10
2016,11,21,16,28,9.00
2016,11,21,16,29,9.00
2016,11,21,16,30,8.90
2016,11,21,16,31,8.90
2016,11,21,16,32,8.80
2016,11,21,16,33,8.80
2016,11,21,16,34,8.80
2016,11,21,16,35,8.80
2016,11,21,16,36,8.80
2016,11,21,16,37,8.80
2016,11,21,16,38,8.80
2016,11,21,16,39,8.70
2016,11,21,16,40,8.70
2016,11,21,16,41,8.70
2016,11,21,16,42,8.70
2016,11,21,16,43,8.60
2016,11,21,16,44,8.60
2016,11,21,16,45,8.60
2016,11,21,16,46,8.60
2016,11,21,16,47,8.50
2016,11,21,16,48,8.50
2016,11,21,16,49,8.50
2016,11,21,16,50,8.50
2016,11,21,16,51,8.50
2016,11,21,16,52,8.50
2016,11,21,16,53,8.50
2016,11,21,16,54,8.50
2016,11,21,16,55,8.50
2016,11,21,16,56,8.60
2016,11,21,16,57,8.60
2016,11,21,16,58,8.60
2016,11,21,16,59,8.70
2016,11,21,17,00,8.70
2016,11,21,17,01,8.70
2016,11,21,17,02,8.70
2016,11,21,17,03,8.70
2016,11,21,17,04,8.60
2016,11,21,17,05,8.60
2016,11,21,17,06,8.60
2016,11,21,17,07,8.60
2016,11,21,17,08,8.60
2016,11,21,17,09,8.60
2016,11,21,17,10,8.60
2016,11,21,17,11,8.50
2016,11,21,17,12,8.50
2016,11,21,17,13,8.60
2016,11,21,17,14,8.60
2016,11,21,17,15,8.60
2016,11,21,17,16,8.60
2016,11,21,17,17,8.60
2016,11,21,17,18,8.60
2016,11,21,17,19,8.60
2016,11,21,17,20,8.60
2016,11,21,17,21,8.60
2016,11,21,17,22,8.70
2016,11,21,17,23,8.70
2016,11,21,17,24,8.70
2016,11,21,17,25,8.70
2016,11,21,17,26,8.70
2016,11,21,17,27,8.70
2016,11,21,17,28,8.80
2016,11,21,17,29,8.80
2016,11,21,17,30,8.80
2016,11,21,17,31,8.80
2016,11,21,17,32,8.90
2016,11,21,17,33,8.90
2016,11,21,17,34,8.90
2016,11,21,17,35,9.00
2016,11,21,17,36,9.00
2016,11,21,17,37,9.00
2016,11,21,17,38,9.10
2016,11,21,17,39,9.10
2016,11,21,17,40,9.10
2016,11,21,17,41,9.10
2016,11,21,17,42,9.10
2016,11,21,17,43,9.00